Weather History for KIAG - June, 2014

Change the Weather History Date:

Wednesday, June 11, 2014

  Actual Average (WUND) Record (WUND)
Temperature  
Mean Temperature 73 °F -  
Max Temperature 82 °F - - (-1)
Min Temperature 64 °F - - (-1)
Cooling Degree Days 8    
Growing Degree Days 23 (Base 50)    
Moisture  
Dew Point 64 °F    
Average Humidity 77    
Maximum Humidity 90    
Minimum Humidity 52    
Precipitation  
Precipitation 0.16 in - - ()
Sea Level Pressure  
Sea Level Pressure 29.84 in    
Wind  
Wind Speed 6 mph (SSE)    
Max Wind Speed 16 mph    
Max Gust Speed 22 mph    
Visibility 9 miles    
Events Rain , Thunderstorm    
Averages and records for this station are not official NWS values.
T = Trace of Precipitation, MM = Missing Value Source: NWS Daily Summary

Daily Weather History Graph

Daily Weather History Graph

Search for Another Location

Airport or City:

Trip Planner

Search our weather history database for the weather conditions in past years. The results will help you decide how hot, cold, wet, or windy it might be!

Date:

Astronomy

Jun. 11, 2014 Rise Set
Actual Time 5:35 AM EDT 8:55 PM EDT
Civil Twilight 5:00 AM EDT 9:30 PM EDT
Nautical Twilight 4:14 AM EDT 10:16 PM EDT
Astronomical Twilight 3:18 AM EDT 11:12 PM EDT
Moon 7:20 PM EDT (6/11) 4:27 AM EDT (6/11)
Length of Visible Light 16h 29m
Length of Day
15h 19m
Waxing Gibbous, 97% of the Moon is Illuminated
Jun 11
Waxing Gibbous
Jun 13
Full
Jun 19
Last Quarter
Jun 27
New
Jul 5
First Quarter

Hourly Weather History & Observations

Time (EDT) Temp. Heat Index Dew Point Humidity Pressure Visibility Wind Dir Wind Speed Gust Speed Precip Events Conditions
12:53 AM 66.0 °F - 55.0 °F 68% 29.93 in 10.0 mi East 6.9 mph - N/A   Partly Cloudy
1:53 AM 66.0 °F - 55.0 °F 68% 29.91 in 10.0 mi East 8.1 mph - N/A   Partly Cloudy
2:53 AM 64.9 °F - 55.0 °F 70% 29.89 in 10.0 mi East 6.9 mph - 0.00 in Rain Light Rain
3:53 AM 64.9 °F - 57.0 °F 75% 29.87 in 10.0 mi East 6.9 mph - 0.00 in   Overcast
4:53 AM 64.9 °F - 60.1 °F 84% 29.85 in 9.0 mi ESE 5.8 mph - 0.00 in Rain Light Rain
5:53 AM 64.9 °F - 61.0 °F 87% 29.86 in 9.0 mi ESE 4.6 mph - 0.01 in Rain Light Rain
6:53 AM 66.0 °F - 63.0 °F 90% 29.86 in 6.0 mi East 6.9 mph - 0.00 in   Overcast
7:00 AM 66.0 °F - 63.0 °F 90% 29.87 in 7.0 mi East 5.8 mph - N/A   Overcast
7:28 AM 66.9 °F - 64.0 °F 90% 29.87 in 6.0 mi ESE 3.5 mph - 0.01 in Rain Light Rain
7:53 AM 68.0 °F - 64.9 °F 90% 29.86 in 7.0 mi SSE 3.5 mph - 0.01 in Rain Light Rain
8:02 AM 68.0 °F - 64.9 °F 90% 29.87 in 7.0 mi Calm Calm - 0.00 in   Overcast
8:53 AM 70.0 °F - 66.0 °F 87% 29.87 in 7.0 mi Calm Calm - 0.00 in   Overcast
8:56 AM 70.0 °F - 66.0 °F 87% 29.88 in 7.0 mi Calm Calm - 0.00 in Rain Light Rain
9:19 AM 70.0 °F - 66.0 °F 87% 29.88 in 7.0 mi Calm Calm - 0.00 in   Overcast
9:53 AM 72.0 °F - 66.9 °F 84% 29.87 in 8.0 mi South 8.1 mph - 0.00 in   Overcast
10:53 AM 73.9 °F - 64.9 °F 73% 29.87 in 9.0 mi SSW 16.1 mph 21.9 mph N/A   Overcast
11:53 AM 75.9 °F - 64.0 °F 67% 29.88 in 10.0 mi SW 11.5 mph - 0.00 in   Overcast
12:53 PM 75.9 °F - 62.1 °F 62% 29.87 in 10.0 mi SW 13.8 mph - N/A   Mostly Cloudy
1:53 PM 78.1 °F - 62.1 °F 58% 29.85 in 10.0 mi SSW 10.4 mph - N/A   Mostly Cloudy
2:53 PM 82.0 °F 83.1 °F 63.0 °F 52% 29.83 in 10.0 mi SSW 11.5 mph 19.6 mph N/A   Mostly Cloudy
3:53 PM 81.0 °F 82.2 °F 63.0 °F 54% 29.81 in 10.0 mi South 12.7 mph - N/A   Mostly Cloudy
4:53 PM 78.8 °F - 62.6 °F 57% 29.81 in 10.0 mi SW 6.9 mph - N/A   Mostly Cloudy
5:09 PM 79.0 °F - 64.0 °F 60% 29.81 in 10.0 mi West 5.8 mph - 0.00 in Rain Light Rain
5:37 PM 77.0 °F - 64.4 °F 65% 29.81 in 10.0 mi West 8.1 mph - N/A   Mostly Cloudy
5:53 PM 77.0 °F - 66.0 °F 69% 29.80 in 10.0 mi West 5.8 mph - 0.00 in   Mostly Cloudy
6:53 PM 77.0 °F - 64.9 °F 66% 29.79 in 10.0 mi Calm Calm - N/A   Overcast
7:53 PM 73.9 °F - 64.9 °F 73% 29.80 in 10.0 mi ENE 8.1 mph - N/A   Overcast
8:42 PM 73.0 °F - 66.0 °F 79% 29.81 in 10.0 mi ESE 3.5 mph - 0.00 in Rain Rain
8:53 PM 73.0 °F - 66.9 °F 81% 29.79 in 10.0 mi Calm Calm - 0.03 in Rain Light Rain
9:06 PM 72.0 °F - 66.9 °F 84% 29.81 in 9.0 mi ESE 3.5 mph - 0.00 in Rain , Thunderstorm Light Thunderstorms and Rain
9:53 PM 72.0 °F - 66.9 °F 84% 29.81 in 10.0 mi SSE 5.8 mph - 0.04 in Rain , Thunderstorm Thunderstorms and Rain
10:15 PM 72.0 °F - 68.0 °F 87% 29.82 in 10.0 mi East 4.6 mph - 0.00 in Rain Light Rain
10:53 PM 71.1 °F - 68.0 °F 90% 29.80 in 5.0 mi East 4.6 mph - 0.06 in Rain Heavy Rain
11:34 PM 71.1 °F - 68.0 °F 90% 29.81 in 8.0 mi Calm Calm - 0.01 in Rain , Thunderstorm Light Rain
11:53 PM 72.0 °F - 66.9 °F 84% 29.80 in 10.0 mi WSW 6.9 mph - 0.01 in Thunderstorm Mostly Cloudy